sat.trackr.live / text

‹ back to catalog

STARLINK-37074

NORAD 68073 · 2026-042E

PAYLOAD ACTIVE UNKNOWN

§ Identity

Operator
Country
US
Launch date
2026-03-04
Launch site
AFETR
Launch vehicle
Mass (kg)
RCS (m²)

Purposes: comms

External: N2YO · Heavens-Above · Gunter

§ Orbital elements

Epoch: 2026-09-19T12:53:54.032352Z

Period
93.85 min
Inclination
53.1604°
Eccentricity
0.0001565
Mean motion
15.34419934 rev/d
Perigee alt
461.6 km
Apogee alt
463.7 km
Semi-major
6,840.8 km
B*
5.6355e-4
RAAN
354.0917°
Arg perigee
95.4064°
Mean anomaly
264.7117°
Rev number
3,204

§ Raw data

STARLINK-370741 68073U 26042E   26262.53743093  .00018724  00000+0  56355-3 0  99982 68073  53.1604 354.0917 0001565  95.4064 264.7117 15.34419934 32049

JSON: /api/v1/satellites/68073 · /tle

For live sub-satellite position, see the globe view (requires WebGL).

§ Visibility from observer

Set your observer location to see the next 7 days of passes ≥ 10°. The values pass through the URL so the page stays shareable.

No JS? Fill the form by hand. The geolocation button needs JavaScript.